,,PA_Meas_PMT16A,,PR_Meas_QMR101_102,,RH_Meas_QMH101,,SR_Meas_QMS101,,TA_Meas_QMH101,,GenWind,,GenWind,
time,status,PA,status,PR,status,RH,status,SR,status,TA,status,DirAvg,status,SpdAvg,
2011-01-28, 00:00:04,VALID,917.735,VALID,0,VALID,95.003,VALID,0,VALID,20.0913,VALID,153,VALID,0,
2011-01-28, 00:01:04,VALID,917.771,VALID,0,VALID,95.1021,VALID,0,VALID,20.0913,VALID,152,VALID,0.166016,
2011-01-28, 00:02:04,VALID,917.777,VALID,0,VALID,95.186,VALID,0,VALID,20.0913,VALID,152,VALID,0.482812,
2011-01-28, 00:03:04,VALID,917.781,VALID,0,VALID,95.2546,VALID,0,VALID,20.0928,VALID,152,VALID,0.7875,
2011-01-28, 00:04:04,VALID,917.815,VALID,0,VALID,95.3308,VALID,0.107441,VALID,20.0913,VALID,152,VALID,0,
2011-01-28, 00:05:04,VALID,917.851,VALID,0,VALID,95.3842,VALID,0,VALID,20.0718,VALID,152,VALID,0.26875,
2011-01-28, 00:06:04,VALID,917.828,VALID,0,VALID,95.4299,VALID,0,VALID,20.0523,VALID,152,VALID,0.141406,
2011-01-28, 00:07:04,VALID,917.829,VALID,0,VALID,95.5214,VALID,0,VALID,20.0718,VALID,152,VALID,0.256641,
2011-01-28, 00:08:04,VALID,917.862,VALID,0,VALID,95.6053,VALID,0,VALID,20.0718,VALID,152,VALID,0.226172,
2011-01-28, 00:09:04,VALID,917.845,VALID,0,VALID,95.651,VALID,0,VALID,20.0913,VALID,152,VALID,0.719531,
2011-01-28, 00:10:04,VALID,917.851,VALID,0,VALID,95.6434,VALID,0,VALID,20.0718,VALID,152,VALID,0.359766,
2011-01-28, 00:11:04,VALID,917.853,VALID,0,VALID,95.6815,VALID,0,VALID,20.0523,VALID,152,VALID,0.693359,
2011-01-28, 00:12:04,VALID,917.836,VALID,0,VALID,95.7044,VALID,0,VALID,20.0538,VALID,152,VALID,0.691406,
2011-01-28, 00:13:04,VALID,917.87,VALID,0,VALID,95.7501,VALID,0.107441,VALID,20.0328,VALID,153,VALID,0.492969,
2011-01-28, 00:14:04,VALID,917.817,VALID,0,VALID,95.7882,VALID,0.107441,VALID,20.0133,VALID,152,VALID,1.31523,
2011-01-28, 00:15:04,VALID,917.83,VALID,0,VALID,95.8187,VALID,0,VALID,20.0133,VALID,152,VALID,0.981641,
2011-01-28, 00:16:04,VALID,917.764,VALID,0,VALID,95.8568,VALID,0,VALID,19.9938,VALID,152,VALID,0.957031,
2011-01-28, 00:17:04,VALID,917.767,VALID,0,VALID,95.9026,VALID,0,VALID,20.0148,VALID,152,VALID,0.819531,
2011-01-28, 00:18:04,VALID,917.755,VALID,0,VALID,95.9178,VALID,0,VALID,19.9938,VALID,152,VALID,1.03359,
2011-01-28, 00:19:04,VALID,917.717,VALID,0,VALID,95.9483,VALID,0,VALID,19.9938,VALID,152,VALID,1.34102,
2011-01-28, 00:20:04,VALID,917.705,VALID,0,VALID,95.9788,VALID,0,VALID,19.9938,VALID,152,VALID,1.24219,
2011-01-28, 00:21:04,VALID,917.717,VALID,0,VALID,95.9941,VALID,0,VALID,19.9938,VALID,152,VALID,1.43438,
2011-01-28, 00:22:04,VALID,917.675,VALID,0,VALID,96.0017,VALID,0,VALID,19.9938,VALID,153,VALID,1.4293,
2011-01-28, 00:23:04,VALID,917.674,VALID,0,VALID,96.0322,VALID,0,VALID,20.0148,VALID,141,VALID,1.70039,
2011-01-28, 00:24:04,VALID,917.669,VALID,0,VALID,96.0322,VALID,0,VALID,20.0148,VALID,123,VALID,1.34648,
2011-01-28, 00:25:04,VALID,917.624,VALID,0,VALID,95.9941,VALID,0,VALID,20.0343,VALID,119,VALID,1.74688,
2011-01-28, 00:26:04,VALID,917.615,VALID,0,VALID,95.9712,VALID,0.107441,VALID,20.0133,VALID,123,VALID,1.02461,
2011-01-28, 00:27:04,VALID,917.614,VALID,0,VALID,95.9331,VALID,0,VALID,20.0343,VALID,124,VALID,1.25625,
2011-01-28, 00:28:04,VALID,917.595,VALID,0,VALID,95.9102,VALID,0,VALID,20.0538,VALID,106,VALID,0.557422,
2011-01-28, 00:29:04,VALID,917.626,VALID,0,VALID,95.8492,VALID,0,VALID,20.0328,VALID,105,VALID,0.666016,
2011-01-28, 00:30:04,VALID,917.604,VALID,0,VALID,95.7882,VALID,0,VALID,20.0523,VALID,87,VALID,0.866406,
2011-01-28, 00:31:04,VALID,917.604,VALID,0,VALID,95.7654,VALID,0,VALID,20.0718,VALID,87,VALID,0.817969,
2011-01-28, 00:32:04,VALID,917.577,VALID,0,VALID,95.7272,VALID,0,VALID,20.0523,VALID,96,VALID,0.841406,
2011-01-28, 00:33:04,VALID,917.579,VALID,0,VALID,95.7044,VALID,0,VALID,20.0733,VALID,129,VALID,0.407422,
2011-01-28, 00:34:04,VALID,917.526,VALID,0,VALID,95.712,VALID,0,VALID,20.0733,VALID,72,VALID,0.398047,
2011-01-28, 00:35:04,VALID,917.543,VALID,0,VALID,95.7349,VALID,0,VALID,20.0733,VALID,72,VALID,0.698828,
2011-01-28, 00:36:04,VALID,917.545,VALID,0,VALID,95.7272,VALID,0,VALID,20.0538,VALID,72,VALID,0.847266,
2011-01-28, 00:37:04,VALID,917.551,VALID,0,VALID,95.773,VALID,0,VALID,20.0733,VALID,72,VALID,0.454688,
2011-01-28, 00:38:04,VALID,917.528,VALID,0,VALID,95.7425,VALID,0,VALID,20.0538,VALID,72,VALID,0.360156,
2011-01-28, 00:39:04,VALID,917.489,VALID,0,VALID,95.7501,VALID,0.107441,VALID,20.0328,VALID,72,VALID,0.462891,
2011-01-28, 00:40:04,VALID,917.476,VALID,0,VALID,95.773,VALID,0,VALID,20.0538,VALID,72,VALID,0.389844,
2011-01-28, 00:41:04,VALID,917.507,VALID,0,VALID,95.8035,VALID,0,VALID,20.0538,VALID,72,VALID,0.41875,
2011-01-28, 00:42:04,VALID,917.45,VALID,0,VALID,95.8035,VALID,0,VALID,20.0733,VALID,72,VALID,0.504687,
2011-01-28, 00:43:04,VALID,917.448,VALID,0,VALID,95.8416,VALID,0,VALID,20.0328,VALID,72,VALID,0.60625,
2011-01-28, 00:44:04,VALID,917.398,VALID,0,VALID,95.773,VALID,0,VALID,20.0343,VALID,73,VALID,0.635938,
2011-01-28, 00:45:04,VALID,917.408,VALID,0,VALID,95.7349,VALID,0,VALID,20.0148,VALID,72,VALID,0.528906,
2011-01-28, 00:46:04,VALID,917.352,VALID,0,VALID,95.7272,VALID,0,VALID,20.0148,VALID,72,VALID,0.680859,
2011-01-28, 00:47:04,VALID,917.332,VALID,0,VALID,95.7044,VALID,0,VALID,19.9953,VALID,72,VALID,0.529297,
2011-01-28, 00:48:04,VALID,917.312,VALID,0,VALID,95.7044,VALID,0,VALID,20.0148,VALID,72,VALID,0.414063,
2011-01-28, 00:49:04,VALID,917.303,VALID,0,VALID,95.6739,VALID,0,VALID,19.9743,VALID,72,VALID,0.490234,
2011-01-28, 00:50:04,VALID,917.284,VALID,0,VALID,95.6739,VALID,0,VALID,19.9953,VALID,72,VALID,0.820313,
2011-01-28, 00:51:04,VALID,917.274,VALID,0,VALID,95.6357,VALID,0,VALID,20.0343,VALID,72,VALID,0.791797,
2011-01-28, 00:52:04,VALID,917.229,VALID,0,VALID,95.6434,VALID,0,VALID,20.0148,VALID,72,VALID,0.31875,
2011-01-28, 00:53:04,VALID,917.229,VALID,0,VALID,95.5671,VALID,0,VALID,19.9728,VALID,120,VALID,0.730469,
2011-01-28, 00:54:04,VALID,917.229,VALID,0,VALID,95.529,VALID,0,VALID,20.0749,VALID,129,VALID,0.519141,
2011-01-28, 00:55:04,VALID,917.168,VALID,0,VALID,95.4985,VALID,0,VALID,20.0553,VALID,129,VALID,0.500781,
2011-01-28, 00:56:04,VALID,917.159,VALID,0,VALID,95.4604,VALID,0,VALID,20.0538,VALID,129,VALID,0.454297,
2011-01-28, 00:57:04,VALID,917.138,VALID,0,VALID,95.4375,VALID,0,VALID,20.0328,VALID,129,VALID,0.577734,
2011-01-28, 00:58:04,VALID,917.157,VALID,0,VALID,95.3766,VALID,0,VALID,19.9923,VALID,129,VALID,0.534375,
2011-01-28, 00:59:04,VALID,917.122,VALID,0,VALID,95.3003,VALID,0,VALID,20.0538,VALID,129,VALID,0.278125,
2011-01-28, 01:00:04,VALID,917.093,VALID,0,VALID,95.2546,VALID,0,VALID,20.0538,VALID,129,VALID,0.212891,
2011-01-28, 01:01:04,VALID,917.085,VALID,0,VALID,95.2546,VALID,0,VALID,20.0523,VALID,129,VALID,0.0488281,
2011-01-28, 01:02:04,VALID,917.087,VALID,0,VALID,95.3079,VALID,0,VALID,20.0928,VALID,129,VALID,0.307422,
2011-01-28, 01:03:04,VALID,917.096,VALID,0,VALID,95.3461,VALID,0,VALID,20.1123,VALID,129,VALID,0.500781,
2011-01-28, 01:04:04,VALID,917.047,VALID,0,VALID,95.3689,VALID,0,VALID,20.0928,VALID,129,VALID,0.626953,
2011-01-28, 01:05:04,VALID,917.024,VALID,0,VALID,95.4147,VALID,0,VALID,20.0928,VALID,129,VALID,0.311719,
2011-01-28, 01:06:04,VALID,917.028,VALID,0,VALID,95.4604,VALID,0,VALID,19.9923,VALID,129,VALID,0.152344,
2011-01-28, 01:07:04,VALID,916.955,VALID,0.2,VALID,95.529,VALID,0,VALID,20.0118,VALID,129,VALID,0,
2011-01-28, 01:08:04,VALID,916.996,VALID,0,VALID,95.5367,VALID,0,VALID,20.0148,VALID,129,VALID,0.0222656,
2011-01-28, 01:09:04,VALID,916.939,VALID,0,VALID,95.5824,VALID,0,VALID,19.9953,VALID,129,VALID,0,
2011-01-28, 01:10:04,VALID,916.912,VALID,0,VALID,95.6434,VALID,0,VALID,20.0148,VALID,129,VALID,0.125,
2011-01-28, 01:11:04,VALID,916.88,VALID,0,VALID,95.7577,VALID,0,VALID,20.0148,VALID,129,VALID,0.728906,
2011-01-28, 01:12:04,VALID,916.854,VALID,0,VALID,95.8263,VALID,0,VALID,19.9938,VALID,129,VALID,1.09102,
2011-01-28, 01:13:04,VALID,916.85,VALID,0.2,VALID,95.8568,VALID,0,VALID,19.9548,VALID,129,VALID,1.04492,
2011-01-28, 01:14:04,VALID,916.85,VALID,0,VALID,95.9331,VALID,0,VALID,19.9353,VALID,129,VALID,1.06055,
2011-01-28, 01:15:04,VALID,916.835,VALID,0.2,VALID,95.9941,VALID,0,VALID,19.9173,VALID,174,VALID,1.40469,
2011-01-28, 01:16:04,VALID,916.833,VALID,0,VALID,96.0703,VALID,0,VALID,19.8963,VALID,171,VALID,0.857422,
2011-01-28, 01:17:04,VALID,916.82,VALID,0.2,VALID,96.1465,VALID,0,VALID,19.8978,VALID,170,VALID,0.733984,
2011-01-28, 01:18:04,VALID,916.798,VALID,0.2,VALID,96.1999,VALID,0,VALID,19.8783,VALID,158,VALID,1.09844,
2011-01-28, 01:19:04,VALID,916.808,VALID,0.4,VALID,96.2609,VALID,0,VALID,19.8168,VALID,148,VALID,0.962891,
2011-01-28, 01:20:04,VALID,916.783,VALID,0.2,VALID,96.3371,VALID,0,VALID,19.8378,VALID,149,VALID,1.20273,
2011-01-28, 01:21:04,VALID,916.811,VALID,0.2,VALID,96.3752,VALID,0,VALID,19.8378,VALID,164,VALID,1.57383,
2011-01-28, 01:22:04,VALID,916.761,VALID,0.2,VALID,96.4133,VALID,0,VALID,19.8168,VALID,173,VALID,0.905469,
2011-01-28, 01:23:04,VALID,916.77,VALID,0.2,VALID,96.4515,VALID,0,VALID,19.7973,VALID,166,VALID,1.03711,
2011-01-28, 01:24:04,VALID,916.786,VALID,0.2,VALID,96.4819,VALID,0,VALID,19.8183,VALID,148,VALID,0.327344,
2011-01-28, 01:25:04,VALID,916.82,VALID,0,VALID,96.4972,VALID,0,VALID,19.8603,VALID,147,VALID,0.469141,
2011-01-28, 01:26:04,VALID,916.785,VALID,0.2,VALID,96.5506,VALID,0,VALID,19.8198,VALID,147,VALID,0.612109,
2011-01-28, 01:27:04,VALID,916.779,VALID,0,VALID,96.5658,VALID,0,VALID,19.8198,VALID,148,VALID,0.600391,
2011-01-28, 01:28:04,VALID,916.786,VALID,0.2,VALID,96.5811,VALID,0,VALID,19.8213,VALID,158,VALID,1.09453,
2011-01-28, 01:29:04,VALID,916.784,VALID,0,VALID,96.5963,VALID,0,VALID,19.7793,VALID,161,VALID,0.592578,
2011-01-28, 01:30:04,VALID,916.781,VALID,0,VALID,96.642,VALID,0,VALID,19.8198,VALID,161,VALID,0.332031,
2011-01-28, 01:31:04,VALID,916.762,VALID,0.2,VALID,96.6344,VALID,0,VALID,19.8018,VALID,161,VALID,0.581641,
2011-01-28, 01:32:04,VALID,916.757,VALID,0,VALID,96.6725,VALID,0,VALID,19.8213,VALID,161,VALID,0.672656,
2011-01-28, 01:33:04,VALID,916.741,VALID,0,VALID,96.6573,VALID,0,VALID,19.8198,VALID,161,VALID,0.360156,
2011-01-28, 01:34:04,VALID,916.723,VALID,0,VALID,96.6649,VALID,0,VALID,19.8213,VALID,161,VALID,0.559766,
2011-01-28, 01:35:04,VALID,916.743,VALID,0.2,VALID,96.6725,VALID,0,VALID,19.7388,VALID,161,VALID,0.747656,
2011-01-28, 01:36:04,VALID,916.687,VALID,0,VALID,96.6802,VALID,0,VALID,19.8648,VALID,161,VALID,0.338672,
2011-01-28, 01:37:04,VALID,916.67,VALID,0,VALID,96.6954,VALID,0,VALID,19.8438,VALID,152,VALID,0.975,
2011-01-28, 01:38:04,VALID,916.63,VALID,0,VALID,96.6649,VALID,0,VALID,19.8213,VALID,165,VALID,1.2125,
2011-01-28, 01:39:04,VALID,916.629,VALID,0,VALID,96.6802,VALID,0,VALID,19.7613,VALID,162,VALID,0.953906,
2011-01-28, 01:40:04,VALID,916.613,VALID,0,VALID,96.7183,VALID,0,VALID,19.7808,VALID,184,VALID,1.57813,
2011-01-28, 01:41:04,VALID,916.59,VALID,0,VALID,96.703,VALID,0,VALID,19.8018,VALID,181,VALID,0.964844,
2011-01-28, 01:42:04,VALID,916.582,VALID,0,VALID,96.7183,VALID,0,VALID,19.7808,VALID,187,VALID,1.32773,
2011-01-28, 01:43:04,VALID,916.592,VALID,0,VALID,96.7259,VALID,0,VALID,19.8228,VALID,182,VALID,0.842969,
2011-01-28, 01:44:04,VALID,916.592,VALID,0,VALID,96.7411,VALID,0,VALID,19.7808,VALID,182,VALID,1.13359,
2011-01-28, 01:45:04,VALID,916.537,VALID,0,VALID,96.7564,VALID,0,VALID,19.8018,VALID,182,VALID,0.973047,
2011-01-28, 01:46:04,VALID,916.563,VALID,0.2,VALID,96.7259,VALID,0,VALID,19.8033,VALID,184,VALID,1.2543,
2011-01-28, 01:47:04,VALID,916.528,VALID,0,VALID,96.7488,VALID,0,VALID,19.7613,VALID,184,VALID,0.824609,
2011-01-28, 01:48:04,VALID,916.496,VALID,0,VALID,96.7564,VALID,0,VALID,19.7613,VALID,177,VALID,1.0625,
2011-01-28, 01:49:04,VALID,916.478,VALID,0,VALID,96.7411,VALID,0,VALID,19.7613,VALID,171,VALID,1.46172,
2011-01-28, 01:50:04,VALID,916.461,VALID,0,VALID,96.7411,VALID,0,VALID,19.7823,VALID,154,VALID,1.32187,
2011-01-28, 01:51:04,VALID,916.471,VALID,0,VALID,96.7107,VALID,0,VALID,19.7403,VALID,162,VALID,0.824609,
2011-01-28, 01:52:04,VALID,916.483,VALID,0,VALID,96.6497,VALID,0,VALID,19.7403,VALID,141,VALID,1.4082,
2011-01-28, 01:53:04,VALID,916.482,VALID,0,VALID,96.6115,VALID,0,VALID,19.7823,VALID,179,VALID,2.13867,
2011-01-28, 01:54:04,VALID,916.504,VALID,0.2,VALID,96.5658,VALID,0,VALID,19.7808,VALID,162,VALID,1.56641,
2011-01-28, 01:55:04,VALID,916.48,VALID,0,VALID,96.4896,VALID,0,VALID,19.8003,VALID,159,VALID,1.40742,
2011-01-28, 01:56:04,VALID,916.512,VALID,0.2,VALID,96.4515,VALID,0,VALID,19.8198,VALID,142,VALID,0.838281,
2011-01-28, 01:57:04,VALID,916.463,VALID,0.2,VALID,96.3905,VALID,0,VALID,19.8003,VALID,154,VALID,1.43906,
2011-01-28, 01:58:04,VALID,916.495,VALID,0,VALID,96.3371,VALID,0,VALID,19.7793,VALID,170,VALID,1.14023,
2011-01-28, 01:59:04,VALID,916.478,VALID,0.2,VALID,96.2837,VALID,0,VALID,19.8003,VALID,170,VALID,0.967969,
2011-01-28, 02:00:04,VALID,916.473,VALID,0.2,VALID,96.2761,VALID,0,VALID,19.7808,VALID,170,VALID,1.14766,
2011-01-28, 02:01:04,VALID,916.469,VALID,0,VALID,96.2837,VALID,0,VALID,19.7808,VALID,170,VALID,1.29258,
2011-01-28, 02:02:04,VALID,916.497,VALID,0.2,VALID,96.2761,VALID,0,VALID,19.7808,VALID,162,VALID,1.02773,
2011-01-28, 02:03:04,VALID,916.522,VALID,0,VALID,96.2914,VALID,0,VALID,19.7598,VALID,138,VALID,1.46211,
2011-01-28, 02:04:04,VALID,916.515,VALID,0,VALID,96.2609,VALID,0,VALID,19.7808,VALID,143,VALID,1.38594,
2011-01-28, 02:05:04,VALID,916.492,VALID,0,VALID,96.2304,VALID,0,VALID,19.7808,VALID,150,VALID,1.11797,
2011-01-28, 02:06:04,VALID,916.501,VALID,0.2,VALID,96.2228,VALID,0,VALID,19.7808,VALID,138,VALID,0.71875,
2011-01-28, 02:07:04,VALID,916.471,VALID,0,VALID,96.2151,VALID,0,VALID,19.7598,VALID,133,VALID,1.56211,
2011-01-28, 02:08:04,VALID,916.42,VALID,0,VALID,96.1618,VALID,0,VALID,19.7808,VALID,170,VALID,1.08281,
2011-01-28, 02:09:04,VALID,916.402,VALID,0,VALID,96.177,VALID,0,VALID,19.8003,VALID,177,VALID,0.940625,
2011-01-28, 02:10:04,VALID,916.425,VALID,0,VALID,96.1313,VALID,0,VALID,19.8003,VALID,183,VALID,1.11172,
2011-01-28, 02:11:04,VALID,916.401,VALID,0,VALID,96.0932,VALID,0,VALID,19.8003,VALID,178,VALID,0.84375,
2011-01-28, 02:12:04,VALID,916.4,VALID,0,VALID,96.0779,VALID,0,VALID,19.8423,VALID,213,VALID,1.09141,
2011-01-28, 02:13:04,VALID,916.292,VALID,0,VALID,96.1084,VALID,0,VALID,19.8408,VALID,312,VALID,0.998828,
2011-01-28, 02:14:04,VALID,916.259,VALID,0,VALID,96.1389,VALID,0,VALID,19.8198,VALID,282,VALID,0.918359,
2011-01-28, 02:15:04,VALID,916.216,VALID,0,VALID,96.2685,VALID,0,VALID,19.8198,VALID,282,VALID,0.966797,
2011-01-28, 02:16:04,VALID,916.196,VALID,0,VALID,96.299,VALID,0,VALID,19.7793,VALID,282,VALID,0.696094,
2011-01-28, 02:17:04,VALID,916.256,VALID,0,VALID,96.3829,VALID,0,VALID,19.7793,VALID,282,VALID,0.329688,
2011-01-28, 02:18:04,VALID,916.256,VALID,0,VALID,96.4286,VALID,0,VALID,19.7793,VALID,282,VALID,0.198828,
2011-01-28, 02:19:04,VALID,916.225,VALID,0,VALID,96.4743,VALID,0,VALID,19.7808,VALID,282,VALID,0.338672,
2011-01-28, 02:20:04,VALID,916.237,VALID,0,VALID,96.5353,VALID,0,VALID,19.8003,VALID,282,VALID,0.766797,
2011-01-28, 02:21:04,VALID,916.224,VALID,0,VALID,96.5429,VALID,0,VALID,19.7613,VALID,282,VALID,0.761328,
2011-01-28, 02:22:04,VALID,916.207,VALID,0,VALID,96.5353,VALID,0,VALID,19.7223,VALID,131,VALID,0.967188,
2011-01-28, 02:23:04,VALID,916.169,VALID,0,VALID,96.5353,VALID,0,VALID,19.6608,VALID,173,VALID,1.14922,
2011-01-28, 02:24:04,VALID,916.163,VALID,0,VALID,96.5506,VALID,0,VALID,19.7433,VALID,153,VALID,0.699609,
2011-01-28, 02:25:04,VALID,916.133,VALID,0,VALID,96.5201,VALID,0,VALID,19.7208,VALID,143,VALID,1.31953,
2011-01-28, 02:26:04,VALID,916.114,VALID,0,VALID,96.5124,VALID,0,VALID,19.7613,VALID,197,VALID,0.666016,
2011-01-28, 02:27:04,VALID,916.078,VALID,0.2,VALID,96.4591,VALID,0,VALID,19.7613,VALID,196,VALID,0.965625,
2011-01-28, 02:28:04,VALID,916.041,VALID,0,VALID,96.4286,VALID,0,VALID,19.7613,VALID,196,VALID,0.5625,
2011-01-28, 02:29:05,VALID,916.024,VALID,0,VALID,96.3981,VALID,0,VALID,19.7613,VALID,196,VALID,0.55625,
2011-01-28, 02:30:05,VALID,916.011,VALID,0,VALID,96.3371,VALID,0,VALID,19.7808,VALID,196,VALID,0.607422,
2011-01-28, 02:31:05,VALID,915.94,VALID,0,VALID,96.2914,VALID,0,VALID,19.7403,VALID,196,VALID,0.783594,
2011-01-28, 02:32:05,VALID,915.949,VALID,0,VALID,96.2685,VALID,0,VALID,19.7598,VALID,201,VALID,1.19414,
2011-01-28, 02:33:05,VALID,915.96,VALID,0,VALID,96.1999,VALID,0,VALID,19.7598,VALID,208,VALID,0.626562,
2011-01-28, 02:34:05,VALID,915.975,VALID,0,VALID,96.1846,VALID,0,VALID,19.8003,VALID,208,VALID,0.636328,
2011-01-28, 02:35:05,VALID,915.957,VALID,0,VALID,96.1465,VALID,0,VALID,19.7793,VALID,208,VALID,1.07109,
2011-01-28, 02:36:05,VALID,915.945,VALID,0,VALID,96.1236,VALID,0,VALID,19.7793,VALID,225,VALID,1.37539,
2011-01-28, 02:37:05,VALID,915.915,VALID,0,VALID,96.1389,VALID,0,VALID,19.8003,VALID,210,VALID,0.737109,
2011-01-28, 02:38:05,VALID,915.933,VALID,0,VALID,96.1465,VALID,0,VALID,19.7808,VALID,210,VALID,1.35156,
2011-01-28, 02:39:05,VALID,915.938,VALID,0,VALID,96.1618,VALID,0,VALID,19.7598,VALID,221,VALID,1.07656,
2011-01-28, 02:40:05,VALID,915.941,VALID,0,VALID,96.1846,VALID,0,VALID,19.7403,VALID,242,VALID,0.572266,
2011-01-28, 02:41:05,VALID,915.936,VALID,0,VALID,96.2151,VALID,0,VALID,19.8003,VALID,253,VALID,1.11836,
2011-01-28, 02:42:05,VALID,915.922,VALID,0.2,VALID,96.2456,VALID,0,VALID,19.8018,VALID,210,VALID,0.949609,
2011-01-28, 02:43:05,VALID,915.943,VALID,0,VALID,96.2533,VALID,0,VALID,19.7208,VALID,203,VALID,1.40039,
2011-01-28, 02:44:05,VALID,915.912,VALID,0,VALID,96.2914,VALID,0,VALID,19.6998,VALID,187,VALID,1.07656,
2011-01-28, 02:45:05,VALID,915.878,VALID,0,VALID,96.299,VALID,0,VALID,19.7823,VALID,222,VALID,1.12539,
2011-01-28, 02:46:05,VALID,915.912,VALID,0,VALID,96.3142,VALID,0,VALID,19.7598,VALID,222,VALID,0.886328,
2011-01-28, 02:47:05,VALID,915.894,VALID,0,VALID,96.3447,VALID,0,VALID,19.7823,VALID,222,VALID,0.625781,
2011-01-28, 02:48:05,VALID,915.892,VALID,0,VALID,96.3752,VALID,0,VALID,19.7193,VALID,199,VALID,1.10664,
2011-01-28, 02:49:05,VALID,915.885,VALID,0,VALID,96.3752,VALID,0,VALID,19.7838,VALID,201,VALID,0.545313,
2011-01-28, 02:50:05,VALID,915.875,VALID,0,VALID,96.3981,VALID,0,VALID,19.7208,VALID,201,VALID,0.824219,
2011-01-28, 02:51:05,VALID,915.837,VALID,0,VALID,96.4057,VALID,0,VALID,19.7013,VALID,201,VALID,0.945313,
2011-01-28, 02:52:05,VALID,915.78,VALID,0,VALID,96.4286,VALID,0,VALID,19.7223,VALID,201,VALID,1.1625,
2011-01-28, 02:53:05,VALID,915.757,VALID,0,VALID,96.4591,VALID,0,VALID,19.7208,VALID,198,VALID,1.52773,
2011-01-28, 02:54:05,VALID,915.766,VALID,0,VALID,96.4515,VALID,0,VALID,19.6818,VALID,210,VALID,0.552734,
2011-01-28, 02:55:05,VALID,915.769,VALID,0,VALID,96.4896,VALID,0,VALID,19.7433,VALID,168,VALID,0.595703,
2011-01-28, 02:56:05,VALID,915.802,VALID,0,VALID,96.5277,VALID,0,VALID,19.6818,VALID,168,VALID,0.683203,
2011-01-28, 02:57:05,VALID,915.812,VALID,0,VALID,96.4972,VALID,0,VALID,19.7223,VALID,168,VALID,1.39688,
2011-01-28, 02:58:05,VALID,915.839,VALID,0,VALID,96.4819,VALID,0,VALID,19.7223,VALID,168,VALID,1.37109,
2011-01-28, 02:59:05,VALID,915.82,VALID,0,VALID,96.4743,VALID,0,VALID,19.7028,VALID,190,VALID,1.24141,
2011-01-28, 03:00:05,VALID,915.835,VALID,0,VALID,96.4896,VALID,0,VALID,19.7643,VALID,193,VALID,1.7125,
2011-01-28, 03:01:05,VALID,915.825,VALID,0,VALID,96.4667,VALID,0,VALID,19.7223,VALID,165,VALID,0.918359,
2011-01-28, 03:02:05,VALID,915.847,VALID,0,VALID,96.4743,VALID,0,VALID,19.7628,VALID,166,VALID,0.966016,
2011-01-28, 03:03:05,VALID,915.839,VALID,0,VALID,96.4896,VALID,0,VALID,19.7043,VALID,171,VALID,1.22227,
2011-01-28, 03:04:05,VALID,915.804,VALID,0,VALID,96.4972,VALID,0,VALID,19.7223,VALID,171,VALID,1.53281,
2011-01-28, 03:05:05,VALID,915.775,VALID,0,VALID,96.4972,VALID,0,VALID,19.6803,VALID,139,VALID,0.833594,
2011-01-28, 03:06:05,VALID,915.759,VALID,0,VALID,96.5048,VALID,0,VALID,19.7028,VALID,138,VALID,1.40313,
2011-01-28, 03:07:05,VALID,915.783,VALID,0,VALID,96.4667,VALID,0,VALID,19.7418,VALID,142,VALID,1.61758,
2011-01-28, 03:08:05,VALID,915.743,VALID,0,VALID,96.4515,VALID,0,VALID,19.6803,VALID,155,VALID,1.7043,
2011-01-28, 03:09:05,VALID,915.768,VALID,0,VALID,96.36,VALID,0,VALID,19.7418,VALID,186,VALID,1.96953,
2011-01-28, 03:10:05,VALID,915.766,VALID,0,VALID,96.2304,VALID,0,VALID,19.7208,VALID,58,VALID,1.14453,
2011-01-28, 03:11:05,VALID,915.775,VALID,0,VALID,96.1846,VALID,0,VALID,19.7808,VALID,58,VALID,0.604297,
2011-01-28, 03:12:05,VALID,915.782,VALID,0,VALID,96.0627,VALID,0,VALID,19.7613,VALID,58,VALID,0.709766,
2011-01-28, 03:13:05,VALID,915.797,VALID,0,VALID,95.9026,VALID,0,VALID,19.7223,VALID,123,VALID,1.46016,
2011-01-28, 03:14:05,VALID,915.785,VALID,0,VALID,95.712,VALID,0,VALID,19.7613,VALID,119,VALID,2.40195,
2011-01-28, 03:15:05,VALID,915.771,VALID,0,VALID,95.3613,VALID,0,VALID,19.7793,VALID,108,VALID,1.8707,
2011-01-28, 03:16:05,VALID,915.746,VALID,0,VALID,95.1555,VALID,0,VALID,19.8198,VALID,100,VALID,0.690234,
2011-01-28, 03:17:05,VALID,915.731,VALID,0,VALID,95.125,VALID,0,VALID,19.7988,VALID,100,VALID,0.414063,
2011-01-28, 03:18:05,VALID,915.722,VALID,0,VALID,95.186,VALID,0,VALID,19.7793,VALID,100,VALID,0.807031,
2011-01-28, 03:19:05,VALID,915.763,VALID,0,VALID,95.2698,VALID,0,VALID,19.7598,VALID,100,VALID,0.533594,
2011-01-28, 03:20:05,VALID,915.722,VALID,0,VALID,95.3613,VALID,0,VALID,19.7403,VALID,100,VALID,0.704297,
2011-01-28, 03:21:05,VALID,915.715,VALID,0,VALID,95.4147,VALID,0,VALID,19.7418,VALID,100,VALID,0.650391,
2011-01-28, 03:22:05,VALID,915.713,VALID,0,VALID,95.4528,VALID,0,VALID,19.6818,VALID,100,VALID,1.02305,
2011-01-28, 03:23:05,VALID,915.714,VALID,0,VALID,95.5443,VALID,0,VALID,19.7013,VALID,100,VALID,0.610547,
2011-01-28, 03:24:05,VALID,915.743,VALID,0,VALID,95.5748,VALID,0,VALID,19.7028,VALID,100,VALID,0.637891,
2011-01-28, 03:25:05,VALID,915.711,VALID,0,VALID,95.6891,VALID,0,VALID,19.6818,VALID,82,VALID,1.09336,
2011-01-28, 03:26:05,VALID,915.739,VALID,0,VALID,95.7501,VALID,0,VALID,19.6833,VALID,70,VALID,0.734375,
2011-01-28, 03:27:05,VALID,915.766,VALID,0,VALID,95.7654,VALID,0,VALID,19.6833,VALID,70,VALID,0.705078,
2011-01-28, 03:28:05,VALID,915.76,VALID,0,VALID,95.7806,VALID,0,VALID,19.6623,VALID,69,VALID,0.725781,
2011-01-28, 03:29:05,VALID,915.729,VALID,0,VALID,95.8035,VALID,0,VALID,19.6833,VALID,69,VALID,0.850391,
2011-01-28, 03:30:05,VALID,915.773,VALID,0,VALID,95.7958,VALID,0,VALID,19.6638,VALID,69,VALID,0.468359,
2011-01-28, 03:31:05,VALID,915.743,VALID,0,VALID,95.8111,VALID,0,VALID,19.6638,VALID,70,VALID,0.280469,
2011-01-28, 03:32:05,VALID,915.741,VALID,0,VALID,95.834,VALID,0,VALID,19.6428,VALID,70,VALID,0,
2011-01-28, 03:33:05,VALID,915.729,VALID,0,VALID,95.895,VALID,0,VALID,19.6428,VALID,70,VALID,0,
2011-01-28, 03:34:05,VALID,915.727,VALID,0,VALID,95.9712,VALID,0,VALID,19.6638,VALID,70,VALID,0.224219,
2011-01-28, 03:35:05,VALID,915.745,VALID,0,VALID,95.9941,VALID,0,VALID,19.6443,VALID,70,VALID,0.416406,
2011-01-28, 03:36:05,VALID,915.781,VALID,0,VALID,96.0398,VALID,0,VALID,19.6443,VALID,70,VALID,0.364062,
2011-01-28, 03:37:05,VALID,915.788,VALID,0,VALID,96.0779,VALID,0,VALID,19.6248,VALID,69,VALID,0.519922,
2011-01-28, 03:38:05,VALID,915.819,VALID,0,VALID,96.1084,VALID,0,VALID,19.6053,VALID,70,VALID,0.754687,
2011-01-28, 03:39:05,VALID,915.775,VALID,0,VALID,96.1236,VALID,0,VALID,19.5858,VALID,77,VALID,0.852344,
2011-01-28, 03:40:05,VALID,915.724,VALID,0,VALID,96.055,VALID,0,VALID,19.5258,VALID,156,VALID,1.53867,
2011-01-28, 03:41:05,VALID,915.642,VALID,0,VALID,95.9712,VALID,0,VALID,19.5258,VALID,181,VALID,1.48242,
2011-01-28, 03:42:05,VALID,915.65,VALID,0,VALID,95.773,VALID,0,VALID,19.5273,VALID,133,VALID,1.44609,
2011-01-28, 03:43:05,VALID,915.698,VALID,0,VALID,95.6662,VALID,0,VALID,19.5468,VALID,93,VALID,1.64648,
2011-01-28, 03:44:05,VALID,915.691,VALID,0,VALID,95.4223,VALID,0.107441,VALID,19.5468,VALID,117,VALID,1.0207,